period_start,C,m1,H,J0,J1,J2,J3,J4,J5,JA,JB,JC,JD,JJ,JK,JN,#
2013-11-18 00:00:24,-0.00,0.09,0.00,23.64,25.12,27.93,5.96,30.58,1027.85,2052.95,3499.98,3339.01,3623.00,349.59,326.93,3.82,0000 0000 0000 0000 000000
2013-11-18 00:01:25,-0.01,0.09,0.00,23.63,25.12,27.88,6.02,30.63,1027.85,2052.97,3499.98,3339.01,3623.00,349.15,326.05,3.82,0000 0000 0000 0000 000000
2013-11-18 00:02:25,0.02,0.09,0.00,23.64,25.12,27.97,5.98,30.25,1027.87,2052.98,3499.96,3339.00,3623.00,349.39,326.28,3.83,0000 0000 0000 0000 000000
2013-11-18 00:03:25,0.00,0.09,0.00,23.63,25.12,27.91,6.03,30.38,1027.86,2052.98,3499.95,3339.00,3623.00,349.75,326.62,3.84,0000 0000 0000 0000 000000
2013-11-18 00:04:25,0.00,0.09,0.00,23.62,25.12,27.91,6.02,30.50,1027.86,2052.95,3499.78,3339.00,3622.99,349.20,325.91,3.84,0000 0000 0000 0000 000000
2013-11-18 00:05:26,0.01,0.09,0.00,23.66,25.12,27.88,6.15,30.50,1027.86,2052.96,3499.48,3339.00,3622.97,350.48,327.28,3.85,0000 0000 0000 0000 000000
2013-11-18 00:06:26,0.03,0.09,0.00,23.65,25.12,27.88,5.92,30.50,1027.85,2052.96,3499.24,3339.00,3622.98,349.08,325.97,3.85,0000 0000 0000 0000 000000
2013-11-18 00:07:26,0.03,0.09,0.00,23.63,25.12,27.92,6.09,30.63,1027.86,2052.95,3499.12,3339.00,3622.95,350.15,326.84,3.86,0000 0000 0000 0000 000000
2013-11-18 00:08:26,0.00,0.09,0.00,23.63,25.12,27.91,6.09,30.83,1027.86,2052.94,3499.05,3338.99,3622.92,351.11,327.69,3.87,0000 0000 0000 0000 000000
2013-11-18 00:09:26,0.01,0.09,0.00,23.63,25.12,27.93,5.97,30.67,1027.85,2052.96,3499.02,3338.98,3622.91,350.00,326.85,3.87,0000 0000 0000 0000 000000
2013-11-18 00:10:27,0.00,0.09,0.00,23.65,25.12,28.00,6.02,30.38,1027.86,2052.98,3499.00,3338.98,3622.85,350.11,326.93,3.88,0000 0000 0000 0000 000000
2013-11-18 00:11:27,0.02,0.09,0.00,23.65,25.12,27.91,5.98,30.63,1027.86,2052.98,3499.00,3338.97,3622.84,349.31,326.18,3.88,0000 0000 0000 0000 000000
2013-11-18 00:12:28,0.00,0.09,0.00,23.63,25.12,27.98,6.10,30.58,1027.85,2052.98,3499.00,3338.98,3622.81,351.27,328.02,3.89,0000 0000 0000 0000 000000
2013-11-18 00:13:28,0.01,0.09,0.00,23.65,25.12,27.90,5.98,30.50,1027.85,2052.97,3499.00,3338.94,3622.70,349.34,326.21,3.89,0000 0000 0000 0000 000000
2013-11-18 00:14:28,0.00,0.09,0.00,23.65,25.12,27.88,6.12,30.79,1027.86,2052.97,3499.00,3338.94,3622.69,350.22,327.33,3.90,0000 0000 0000 0000 000000
2013-11-18 00:15:28,0.00,0.09,0.00,23.66,25.12,27.97,5.97,30.67,1027.86,2052.98,3499.00,3338.94,3622.62,349.69,326.81,3.91,0000 0000 0000 0000 000000
2013-11-18 00:16:28,0.01,0.09,0.00,23.68,25.12,27.92,6.02,30.54,1027.85,2052.97,3499.00,3338.83,3622.37,350.77,327.18,3.91,0000 0000 0000 0000 000000
2013-11-18 00:17:29,0.04,0.10,0.00,23.67,25.12,27.88,6.01,30.83,1027.86,2052.98,3498.98,3338.69,3622.17,349.92,326.74,3.92,0000 0000 0000 0000 000000
2013-11-18 00:18:29,0.05,0.10,0.00,23.66,25.12,27.87,6.02,30.50,1027.85,2052.98,3498.97,3338.55,3622.14,350.11,326.92,3.92,0000 0000 0000 0000 000000
2013-11-18 00:19:29,0.04,0.10,0.00,23.65,25.12,27.94,6.07,30.58,1027.85,2052.98,3498.91,3338.38,3622.09,349.99,326.93,3.93,0000 0000 0000 0000 000000
2013-11-18 00:20:29,0.04,0.10,0.00,23.66,25.12,27.90,5.97,30.46,1027.86,2052.94,3498.68,3338.24,3622.06,349.27,326.47,3.94,0000 0000 0000 0000 000000
2013-11-18 00:21:30,0.02,0.10,0.00,23.66,25.12,27.91,6.10,30.33,1027.87,2052.95,3498.49,3338.16,3622.04,350.48,327.11,3.94,0000 0000 0000 0000 000000
2013-11-18 00:22:30,0.05,0.10,0.00,23.67,25.12,27.92,5.94,30.54,1027.89,2052.98,3498.45,3338.13,3622.02,349.82,326.64,3.95,0000 0000 0000 0000 000000
2013-11-18 00:23:30,0.03,0.10,0.00,23.67,25.12,27.92,5.95,30.58,1027.88,2052.97,3498.24,3338.07,3622.02,348.50,325.42,3.95,0000 0000 0000 0000 000000
2013-11-18 00:24:31,0.02,0.10,0.00,23.65,25.12,27.86,6.09,30.46,1027.87,2052.97,3498.12,3338.04,3622.02,351.45,328.01,3.96,0000 0000 0000 0000 000000
2013-11-18 00:25:31,0.02,0.10,0.00,23.65,25.12,27.86,5.89,30.46,1027.86,2052.97,3498.05,3338.05,3622.02,349.41,326.29,3.96,0000 0000 0000 0000 000000
2013-11-18 00:26:31,0.00,0.10,0.00,23.66,25.12,27.89,5.93,30.63,1027.86,2052.98,3498.06,3338.11,3622.02,349.11,326.01,3.97,0000 0000 0000 0000 000000
2013-11-18 00:27:31,-0.00,0.10,0.00,23.64,25.12,27.92,5.98,30.75,1027.86,2052.99,3498.04,3338.07,3622.02,350.17,327.00,3.98,0000 0000 0000 0000 000000
2013-11-18 00:28:32,0.01,0.10,0.00,23.63,25.12,27.91,5.88,30.58,1027.85,2052.99,3498.01,3338.03,3622.00,349.13,326.33,3.98,0000 0000 0000 0000 000000
2013-11-18 00:29:32,0.01,0.10,0.00,23.63,25.12,27.91,5.85,30.29,1027.85,2052.98,3498.00,3338.01,3622.00,349.89,326.76,3.99,0000 0000 0000 0000 000000
2013-11-18 00:30:32,0.00,0.10,0.00,23.61,25.12,27.90,6.10,30.71,1027.85,2052.98,3498.00,3338.00,3622.00,351.26,327.73,3.99,0000 0000 0000 0000 000000
2013-11-18 00:31:32,0.00,0.10,0.00,23.63,25.12,27.89,5.98,30.46,1027.85,2052.96,3498.00,3338.00,3621.98,349.71,326.80,4.00,0000 0000 0000 0000 000000
2013-11-18 00:32:33,-0.00,0.10,0.00,23.63,25.12,28.00,6.15,30.42,1027.85,2052.95,3498.00,3338.00,3621.95,352.41,329.30,4.01,0000 0000 0000 0000 000000
2013-11-18 00:33:33,0.00,0.10,0.00,23.65,25.12,27.95,6.01,30.29,1027.84,2052.98,3497.98,3338.00,3621.94,351.16,327.38,4.01,0000 0000 0000 0000 000000
2013-11-18 00:34:33,0.02,0.10,0.00,23.66,25.12,27.90,5.99,30.92,1027.83,2052.97,3497.97,3338.00,3621.93,349.02,325.52,4.02,0000 0000 0000 0000 000000
2013-11-18 00:35:34,0.01,0.10,0.00,23.65,25.12,27.88,5.98,30.33,1027.82,2052.98,3497.93,3337.99,3621.88,349.68,326.95,4.02,0000 0000 0000 0000 000000
2013-11-18 00:36:34,0.02,0.10,0.00,23.62,25.12,27.90,5.98,30.58,1027.84,2052.98,3497.88,3337.98,3621.80,349.59,326.52,4.03,0000 0000 0000 0000 000000
2013-11-18 00:37:34,0.02,0.10,0.00,23.63,25.12,27.90,6.02,30.33,1027.82,2052.96,3497.61,3337.98,3621.60,350.81,327.76,4.04,0000 0000 0000 0000 000000
2013-11-18 00:38:34,0.04,0.10,0.00,23.64,25.12,27.95,5.86,30.67,1027.83,2052.97,3497.50,3337.98,3621.56,349.84,326.50,4.04,0000 0000 0000 0000 000000
2013-11-18 00:39:35,0.02,0.10,0.00,23.64,25.12,27.97,6.02,30.50,1027.83,2052.96,3497.28,3337.92,3621.41,349.70,326.78,4.05,0000 0000 0000 0000 000000
2013-11-18 00:40:35,0.03,0.10,0.00,23.64,25.12,27.89,6.00,30.54,1027.85,2052.97,3497.15,3337.87,3621.22,350.21,326.90,4.05,0000 0000 0000 0000 000000
2013-11-18 00:41:35,0.06,0.10,0.00,23.65,25.12,27.90,6.02,30.38,1027.85,2052.95,3497.08,3337.89,3621.08,350.88,327.65,4.06,0000 0000 0000 0000 000000
2013-11-18 00:42:36,0.01,0.10,0.00,23.62,25.12,27.96,5.83,30.46,1027.85,2052.97,3497.04,3337.80,3621.06,348.39,325.36,4.06,0000 0000 0000 0000 000000
2013-11-18 00:43:36,0.03,0.10,0.00,23.63,25.12,27.90,5.97,30.83,1027.85,2052.99,3497.01,3337.65,3621.04,350.49,327.58,4.07,0000 0000 0000 0000 000000
2013-11-18 00:44:36,0.04,0.10,0.00,23.63,25.12,27.87,5.94,30.54,1027.85,2052.99,3497.00,3337.51,3621.02,349.69,326.13,4.08,0000 0000 0000 0000 000000
2013-11-18 00:45:37,0.04,0.10,0.00,23.63,25.12,27.86,6.12,30.42,1027.80,2052.98,3497.00,3337.34,3621.01,350.51,327.40,4.08,0000 0000 0000 0000 000000
2013-11-18 00:46:37,0.01,0.10,0.00,23.62,25.12,27.89,5.97,30.46,1027.77,2052.96,3497.00,3337.18,3621.00,350.58,327.16,4.09,0000 0000 0000 0000 000000
2013-11-18 00:47:37,0.02,0.10,0.00,23.60,25.12,27.95,6.04,30.29,1027.77,2052.97,3497.00,3337.13,3621.00,350.97,327.76,4.09,0000 0000 0000 0000 000000
2013-11-18 00:48:38,0.02,0.10,0.00,23.61,25.12,27.89,5.82,30.50,1027.70,2052.98,3497.00,3337.10,3621.00,348.13,325.36,4.10,0000 0000 0000 0000 000000
2013-11-18 00:49:38,0.00,0.10,0.00,23.61,25.12,27.87,5.93,30.38,1027.69,2052.99,3497.00,3337.06,3621.00,350.22,326.89,4.11,0000 0000 0000 0000 000000
2013-11-18 00:50:38,0.01,0.10,0.00,23.60,25.12,27.94,5.96,30.46,1027.69,2052.99,3497.00,3337.04,3621.00,350.08,327.05,4.11,0000 0000 0000 0000 000000
2013-11-18 00:51:39,-0.00,0.10,0.00,23.62,25.12,27.93,5.83,30.33,1027.65,2052.97,3496.99,3337.06,3621.00,348.21,325.13,4.12,0000 0000 0000 0000 000000
2013-11-18 00:52:39,-0.00,0.10,0.00,23.63,25.12,27.90,5.96,30.58,1027.66,2052.98,3496.97,3337.05,3621.00,349.80,326.71,4.12,0000 0000 0000 0000 000000
2013-11-18 00:53:39,0.01,0.10,0.00,23.63,25.12,27.91,6.02,30.42,1027.57,2052.98,3496.98,3337.03,3621.00,350.27,327.32,4.13,0000 0000 0000 0000 000000
2013-11-18 00:54:40,0.00,0.10,0.00,23.64,25.12,27.93,5.89,30.50,1027.56,2052.97,3496.87,3337.02,3620.98,349.62,326.68,4.13,0000 0000 0000 0000 000000
2013-11-18 00:55:40,0.01,0.10,0.00,23.68,25.12,27.89,5.94,30.54,1027.54,2052.98,3496.71,3337.00,3620.97,349.95,326.65,4.14,0000 0000 0000 0000 000000
2013-11-18 00:56:40,0.03,0.10,0.00,23.69,25.12,27.89,5.83,30.29,1027.50,2052.98,3496.70,3337.00,3620.97,348.99,325.73,4.15,0000 0000 0000 0000 000000
2013-11-18 00:57:40,0.01,0.10,0.00,23.70,25.12,27.95,6.13,30.54,1027.58,2052.98,3496.58,3337.00,3620.90,349.14,325.88,4.15,0000 0000 0000 0000 000000
2013-11-18 00:58:41,0.04,0.10,0.00,23.69,25.12,27.88,5.96,30.54,1027.66,2052.96,3496.28,3337.00,3620.56,350.09,326.80,4.16,0000 0000 0000 0000 000000
2013-11-18 00:59:41,0.05,0.10,0.00,23.67,25.12,27.89,5.95,30.67,1027.71,2052.93,3496.12,3336.99,3620.37,349.65,326.32,4.16,0000 0000 0000 0000 000000
2013-11-18 01:00:41,0.02,0.10,0.00,23.65,25.12,27.97,6.06,30.50,1027.73,2052.93,3496.04,3336.98,3620.16,349.75,326.56,4.17,0000 0000 0000 0000 000000
2013-11-18 01:01:42,0.02,0.10,0.00,23.66,25.12,27.86,5.85,30.54,1027.74,2052.95,3496.01,3336.99,3620.09,349.02,325.88,4.18,0000 0000 0000 0000 000000
2013-11-18 01:02:42,0.02,0.10,0.00,23.65,25.12,27.84,6.18,30.54,1027.79,2052.98,3496.00,3336.98,3620.11,351.18,327.91,4.18,0000 0000 0000 0000 000000
2013-11-18 01:03:42,0.01,0.10,0.00,23.65,25.12,27.89,5.99,30.50,1027.75,2052.98,3496.00,3336.99,3620.07,350.04,326.79,4.19,0000 0000 0000 0000 000000
2013-11-18 01:04:42,0.01,0.10,0.00,23.63,25.12,27.96,5.99,30.63,1027.75,2052.98,3496.00,3336.99,3620.08,350.55,327.63,4.19,0000 0000 0000 0000 000000
2013-11-18 01:05:43,-0.01,0.10,0.00,23.66,25.12,27.98,6.07,30.50,1027.72,2052.97,3496.00,3336.98,3620.06,349.43,326.25,4.20,0000 0000 0000 0000 000000
2013-11-18 01:06:43,-0.00,0.10,0.00,23.65,25.12,27.89,5.97,30.29,1027.71,2052.97,3496.00,3336.97,3620.02,349.79,326.65,4.21,0000 0000 0000 0000 000000
2013-11-18 01:07:43,0.01,0.10,0.00,23.61,25.12,27.87,6.05,30.54,1027.70,2052.97,3495.99,3336.99,3620.02,349.99,326.82,4.21,0000 0000 0000 0000 000000
2013-11-18 01:08:43,-0.01,0.10,0.00,23.61,25.12,27.84,5.98,30.46,1027.68,2052.96,3495.98,3336.95,3620.01,349.02,326.19,4.22,0000 0000 0000 0000 000000
2013-11-18 01:09:44,0.01,0.10,0.00,23.64,25.12,27.93,6.04,30.54,1027.65,2052.98,3495.97,3336.92,3620.00,351.18,327.88,4.22,0000 0000 0000 0000 000000
2013-11-18 01:10:44,0.01,0.10,0.00,23.65,25.12,27.91,6.11,30.50,1027.54,2052.97,3495.98,3336.89,3620.02,350.20,327.17,4.23,0000 0000 0000 0000 000000
2013-11-18 01:11:44,0.00,0.10,0.00,23.63,25.12,27.93,6.00,30.63,1027.49,2052.97,3495.98,3336.84,3620.01,349.83,326.64,4.23,0000 0000 0000 0000 000000
2013-11-18 01:12:44,0.01,0.10,0.00,23.64,25.12,27.86,6.06,30.67,1027.46,2052.95,3495.95,3336.67,3620.00,350.90,327.80,4.24,0000 0000 0000 0000 000000
2013-11-18 01:13:45,0.02,0.10,0.00,23.65,25.12,27.89,5.95,30.54,1027.46,2052.97,3495.91,3336.59,3620.00,349.40,326.63,4.25,0000 0000 0000 0000 000000
2013-11-18 01:14:45,0.03,0.10,0.00,23.65,25.12,27.94,6.11,30.38,1027.43,2052.98,3495.84,3336.50,3620.00,350.43,327.15,4.25,0000 0000 0000 0000 000000
2013-11-18 01:15:45,0.02,0.10,0.00,23.67,25.12,27.94,6.01,30.58,1027.44,2052.99,3495.78,3336.53,3620.00,351.00,327.63,4.26,0000 0000 0000 0000 000000
2013-11-18 01:16:46,0.02,0.10,0.00,23.66,25.12,27.93,5.94,30.29,1027.40,2052.98,3495.61,3336.33,3620.00,349.34,326.06,4.26,0000 0000 0000 0000 000000
2013-11-18 01:17:46,0.06,0.10,0.00,23.66,25.12,27.92,5.98,30.38,1027.40,2052.98,3495.38,3336.19,3620.00,349.91,326.60,4.27,0000 0000 0000 0000 000000
2013-11-18 01:18:46,0.05,0.10,0.00,23.64,25.12,27.89,6.01,30.58,1027.37,2052.96,3495.21,3336.11,3620.00,349.97,326.66,4.28,0000 0000 0000 0000 000000
2013-11-18 01:19:46,0.03,0.10,0.00,23.66,25.12,27.95,6.11,30.75,1027.37,2052.97,3495.10,3336.07,3620.00,350.52,327.29,4.28,0000 0000 0000 0000 000000
2013-11-18 01:20:47,0.02,0.10,0.00,23.69,25.12,27.88,6.00,30.25,1027.36,2052.97,3495.07,3336.05,3620.00,350.18,326.80,4.29,0000 0000 0000 0000 000000
2013-11-18 01:21:47,0.01,0.10,0.00,23.68,25.12,27.91,5.93,30.38,1027.36,2052.98,3495.03,3336.03,3619.94,349.70,326.36,4.29,0000 0000 0000 0000 000000
2013-11-18 01:22:47,0.01,0.10,0.00,23.66,25.12,28.02,5.95,30.67,1027.36,2052.96,3495.02,3336.02,3619.75,349.05,326.16,4.30,0000 0000 0000 0000 000000
2013-11-18 01:23:48,0.01,0.10,0.00,23.63,25.12,27.93,6.15,30.63,1027.36,2052.95,3495.00,3336.00,3619.46,350.18,326.58,4.30,0000 0000 0000 0000 000000
2013-11-18 01:24:48,0.02,0.10,0.00,23.65,25.12,27.88,6.02,30.33,1027.36,2052.98,3495.00,3336.00,3619.50,349.86,326.62,4.31,0000 0000 0000 0000 000000
2013-11-18 01:25:48,0.02,0.10,0.00,23.65,25.12,27.97,5.94,30.46,1027.36,2052.98,3495.00,3336.01,3619.45,350.30,327.01,4.32,0000 0000 0000 0000 000000
2013-11-18 01:26:48,0.00,0.10,0.00,23.65,25.12,27.86,5.98,30.33,1027.36,2052.99,3495.00,3336.00,3619.48,349.94,326.13,4.32,0000 0000 0000 0000 000000
2013-11-18 01:27:49,0.01,0.10,0.00,23.68,25.12,27.83,5.87,30.33,1027.36,2052.98,3495.00,3336.00,3619.27,349.79,326.43,4.33,0000 0000 0000 0000 000000
2013-11-18 01:28:49,0.01,0.10,0.00,23.65,25.12,27.90,5.88,30.71,1027.36,2052.98,3495.00,3336.00,3619.11,348.61,325.76,4.33,0000 0000 0000 0000 000000
2013-11-18 01:29:49,0.01,0.10,0.00,23.63,25.12,27.94,5.88,30.33,1027.36,2052.99,3494.99,3336.00,3619.07,348.84,325.62,4.34,0000 0000 0000 0000 000000
2013-11-18 01:30:49,0.01,0.10,0.00,23.62,25.12,27.87,6.08,30.42,1027.36,2052.99,3494.98,3336.00,3619.07,350.61,327.27,4.35,0000 0000 0000 0000 000000
2013-11-18 01:31:50,0.01,0.10,0.00,23.63,25.12,27.95,6.02,30.79,1027.36,2052.99,3494.97,3336.00,3619.10,350.67,327.34,4.35,0000 0000 0000 0000 000000
2013-11-18 01:32:50,0.00,0.10,0.00,23.66,25.12,27.88,5.99,30.46,1027.36,2052.98,3494.98,3336.00,3619.10,350.19,326.85,4.36,0000 0000 0000 0000 000000
2013-11-18 01:33:50,0.00,0.10,0.00,23.68,25.12,27.88,6.02,30.63,1027.36,2052.98,3494.91,3336.00,3619.08,350.01,327.01,4.36,0000 0000 0000 0000 000000
2013-11-18 01:34:51,0.01,0.10,0.00,23.68,25.12,27.95,6.07,30.50,1027.35,2052.99,3494.78,3335.99,3619.03,350.76,327.77,4.37,0000 0000 0000 0000 000000
2013-11-18 01:35:51,0.01,0.10,0.00,23.68,25.12,27.88,6.04,30.50,1027.33,2052.97,3494.62,3335.98,3619.03,350.13,326.27,4.38,0000 0000 0000 0000 000000
2013-11-18 01:36:51,0.02,0.10,0.00,23.68,25.12,27.86,6.08,30.54,1027.28,2052.99,3494.37,3335.98,3619.03,350.35,326.94,4.38,0000 0000 0000 0000 000000
2013-11-18 01:37:51,0.03,0.10,0.00,23.66,25.12,27.88,6.06,30.92,1027.21,2052.99,3494.19,3335.98,3619.03,350.53,327.11,4.39,0000 0000 0000 0000 000000
2013-11-18 01:38:52,0.02,0.10,0.00,23.66,25.12,27.93,6.07,30.63,1027.21,2052.98,3494.10,3335.90,3619.01,350.20,326.87,4.39,0000 0000 0000 0000 000000
2013-11-18 01:39:52,0.02,0.11,0.00,23.64,25.12,27.89,5.98,30.71,1027.20,2052.99,3494.04,3335.91,3619.00,350.26,326.88,4.40,0000 0000 0000 0000 000000
2013-11-18 01:40:52,0.01,0.11,0.00,23.64,25.12,27.92,5.93,30.54,1027.18,2052.98,3494.01,3335.89,3619.00,349.25,325.93,4.40,0000 0000 0000 0000 000000
2013-11-18 01:41:53,0.00,0.10,0.00,23.63,25.12,27.96,6.00,30.54,1027.20,2052.99,3494.00,3335.92,3619.00,350.46,327.15,4.41,0000 0000 0000 0000 000000
2013-11-18 01:42:53,0.00,0.10,0.00,23.63,25.12,27.94,5.95,30.67,1027.27,2052.99,3494.00,3335.94,3619.00,349.28,326.23,4.42,0000 0000 0000 0000 000000
2013-11-18 01:43:53,0.00,0.11,0.00,23.64,25.12,27.89,5.99,30.79,1027.25,2052.98,3494.00,3335.68,3619.00,350.56,327.31,4.42,0000 0000 0000 0000 000000
2013-11-18 01:44:54,0.05,0.11,0.00,23.64,25.12,27.92,5.93,31.04,1027.26,2052.99,3493.99,3335.44,3618.97,348.59,325.33,4.43,0000 0000 0000 0000 000000
2013-11-18 01:45:54,0.06,0.11,0.00,23.65,25.12,27.94,6.06,30.92,1027.26,2052.99,3493.99,3335.22,3618.95,349.93,326.74,4.43,0000 0000 0000 0000 000000
2013-11-18 01:46:54,0.03,0.11,0.00,23.65,25.12,27.86,6.02,30.63,1027.18,2052.97,3493.98,3335.11,3618.96,350.89,327.75,4.44,0000 0000 0000 0000 000000
2013-11-18 01:47:54,0.02,0.11,0.00,23.66,25.12,27.85,5.93,30.71,1027.15,2052.99,3493.99,3335.08,3618.95,349.12,325.73,4.45,0000 0000 0000 0000 000000
2013-11-18 01:48:55,0.01,0.11,0.00,23.65,25.12,27.89,5.89,30.46,1027.19,2052.98,3493.95,3335.05,3618.95,349.07,325.98,4.45,0000 0000 0000 0000 000000
2013-11-18 01:49:55,0.01,0.11,0.00,23.65,25.12,27.93,5.99,30.88,1027.09,2052.99,3493.90,3335.02,3618.87,350.44,326.99,4.46,0000 0000 0000 0000 000000
2013-11-18 01:50:55,0.02,0.11,0.00,23.64,25.12,27.94,5.97,30.58,1027.11,2052.99,3493.86,3335.01,3618.75,349.90,326.83,4.46,0000 0000 0000 0000 000000
2013-11-18 01:51:56,0.01,0.11,0.00,23.65,25.12,27.95,6.07,30.58,1027.04,2052.99,3493.84,3335.00,3618.68,350.55,326.91,4.47,0000 0000 0000 0000 000000
2013-11-18 01:52:56,0.02,0.11,0.00,23.67,25.12,28.01,6.05,30.38,1027.01,2052.99,3493.54,3335.00,3618.38,350.32,326.35,4.47,0000 0000 0000 0000 000000
2013-11-18 01:53:56,0.07,0.11,0.00,23.67,25.12,27.92,5.87,30.38,1027.03,2052.99,3493.22,3335.00,3618.18,350.31,326.87,4.48,0000 0000 0000 0000 000000
2013-11-18 01:54:56,0.06,0.11,0.00,23.69,25.12,27.96,5.92,30.50,1026.97,2052.98,3493.09,3335.00,3618.09,349.58,326.11,4.49,0000 0000 0000 0000 000000
2013-11-18 01:55:57,0.01,0.11,0.00,23.69,25.12,27.89,6.02,30.50,1026.98,2052.98,3493.04,3335.00,3618.06,349.81,326.33,4.49,0000 0000 0000 0000 000000
2013-11-18 01:56:57,0.00,0.11,0.00,23.69,25.12,27.91,6.05,30.33,1027.01,2052.97,3493.02,3335.00,3618.05,350.07,326.59,4.50,0000 0000 0000 0000 000000
2013-11-18 01:57:57,0.01,0.11,0.00,23.66,25.12,27.94,5.92,30.58,1026.99,2052.97,3493.01,3335.00,3618.04,349.64,326.21,4.50,0000 0000 0000 0000 000000
2013-11-18 01:58:57,0.00,0.11,0.00,23.67,25.12,27.87,6.09,30.50,1027.02,2052.98,3493.00,3334.98,3618.01,350.30,326.82,4.51,0000 0000 0000 0000 000000
2013-11-18 01:59:58,0.01,0.11,0.00,23.67,25.12,27.86,6.06,30.42,1026.96,2052.97,3493.00,3334.98,3618.00,349.94,326.77,4.52,0000 0000 0000 0000 000000
2013-11-18 02:00:58,-0.01,0.11,0.00,23.67,25.12,27.86,5.92,30.42,1026.92,2052.96,3492.99,3334.99,3618.00,349.33,326.03,4.52,0000 0000 0000 0000 000000
2013-11-18 02:01:58,-0.01,0.11,0.00,23.65,25.12,27.95,5.88,30.38,1026.93,2052.97,3492.99,3334.96,3618.00,350.06,326.88,4.53,0000 0000 0000 0000 000000
2013-11-18 02:02:59,0.01,0.11,0.00,23.64,25.12,27.89,6.02,30.42,1026.92,2052.97,3492.99,3334.95,3618.00,350.75,327.28,4.53,0000 0000 0000 0000 000000
2013-11-18 02:03:59,0.01,0.11,0.00,23.64,25.12,27.87,5.98,30.58,1026.92,2052.98,3492.97,3334.86,3618.00,349.79,326.35,4.54,0000 0000 0000 0000 000000
2013-11-18 02:04:59,0.02,0.11,0.00,23.64,25.12,27.92,6.03,30.46,1026.92,2052.97,3492.97,3334.78,3617.98,349.53,326.11,4.54,0000 0000 0000 0000 000000
2013-11-18 02:05:59,0.00,0.11,0.00,23.63,25.12,27.92,5.98,30.42,1026.89,2052.96,3492.98,3334.79,3617.99,350.48,327.37,4.55,0000 0000 0000 0000 000000
2013-11-18 02:06:59,0.00,0.11,0.00,23.64,25.12,27.96,5.99,30.54,1026.87,2052.98,3492.88,3334.62,3617.97,350.66,327.05,4.56,0000 0000 0000 0000 000000
2013-11-18 02:08:00,0.05,0.11,0.00,23.63,25.12,27.94,6.02,30.88,1026.88,2052.96,3492.69,3334.39,3617.97,349.84,326.05,4.56,0000 0000 0000 0000 000000
2013-11-18 02:09:00,0.06,0.11,0.00,23.63,25.12,27.89,5.84,30.54,1026.87,2052.96,3492.48,3334.31,3617.95,349.88,326.43,4.57,0000 0000 0000 0000 000000
2013-11-18 02:10:00,0.05,0.11,0.00,23.63,25.12,27.88,6.02,30.13,1026.87,2052.96,3492.34,3334.26,3617.95,350.62,327.12,4.57,0000 0000 0000 0000 000000
2013-11-18 02:11:00,0.02,0.11,0.00,23.62,25.12,27.91,5.97,30.63,1026.87,2052.96,3492.19,3334.17,3617.93,349.75,326.19,4.58,0000 0000 0000 0000 000000
2013-11-18 02:12:01,0.04,0.11,0.00,23.63,25.12,27.95,5.96,30.63,1026.87,2052.96,3492.08,3334.07,3617.71,349.88,326.44,4.59,0000 0000 0000 0000 000000
2013-11-18 02:13:01,0.05,0.11,0.00,23.63,25.12,27.88,6.10,30.79,1026.87,2052.96,3492.05,3334.04,3617.39,350.79,327.27,4.59,0000 0000 0000 0000 000000
2013-11-18 02:14:01,0.05,0.11,0.00,23.64,25.12,27.93,5.92,30.33,1026.87,2052.98,3492.02,3334.03,3617.30,350.21,326.53,4.60,0000 0000 0000 0000 000000
2013-11-18 02:15:02,0.02,0.11,0.00,23.67,25.12,27.91,6.10,30.75,1026.85,2052.98,3492.01,3334.04,3617.26,350.24,326.72,4.60,0000 0000 0000 0000 000000
2013-11-18 02:16:02,0.00,0.11,0.00,23.66,25.12,27.86,6.01,30.67,1026.81,2052.98,3492.00,3334.05,3617.30,349.86,326.35,4.61,0000 0000 0000 0000 000000
2013-11-18 02:17:02,0.00,0.11,0.00,23.65,25.12,27.90,5.95,30.63,1026.79,2052.98,3492.00,3334.02,3617.16,349.86,326.38,4.62,0000 0000 0000 0000 000000
2013-11-18 02:18:02,0.02,0.11,0.00,23.65,25.12,27.95,6.07,30.67,1026.73,2052.99,3492.00,3334.00,3617.08,350.69,327.11,4.62,0000 0000 0000 0000 000000
2013-11-18 02:19:03,0.01,0.11,0.00,23.63,25.12,27.88,5.89,30.33,1026.61,2052.97,3492.00,3334.00,3617.03,349.76,326.23,4.63,0000 0000 0000 0000 000000
2013-11-18 02:20:03,-0.01,0.11,0.00,23.64,25.12,27.95,5.96,30.75,1026.48,2052.97,3491.99,3334.00,3617.02,349.36,325.82,4.63,0000 0000 0000 0000 000000
2013-11-18 02:21:03,0.01,0.11,0.00,23.62,25.12,27.95,6.09,30.92,1026.43,2052.98,3491.98,3334.00,3617.02,349.60,326.03,4.64,0000 0000 0000 0000 000000
2013-11-18 02:22:03,0.00,0.11,0.00,23.60,25.12,27.95,6.06,30.63,1026.40,2052.98,3491.98,3334.00,3617.02,350.58,326.74,4.64,0000 0000 0000 0000 000000
2013-11-18 02:23:04,0.01,0.11,0.00,23.59,25.12,27.93,5.89,30.75,1026.43,2052.98,3491.92,3333.99,3617.00,348.93,326.04,4.65,0000 0000 0000 0000 000000
2013-11-18 02:24:04,0.00,0.11,0.00,23.62,25.12,27.95,5.98,30.58,1026.44,2052.97,3491.87,3333.97,3617.00,349.53,325.96,4.66,0000 0000 0000 0000 000000
2013-11-18 02:25:04,0.00,0.11,0.00,23.62,25.12,27.98,5.96,30.92,1026.41,2052.96,3491.70,3333.98,3617.00,350.16,326.55,4.66,0000 0000 0000 0000 000000
2013-11-18 02:26:05,0.02,0.11,0.00,23.62,25.12,27.95,5.95,30.54,1026.43,2052.98,3491.42,3333.99,3617.00,349.25,325.70,4.67,0000 0000 0000 0000 000000
2013-11-18 02:27:05,0.04,0.11,0.00,23.64,25.12,27.89,5.94,30.42,1026.41,2052.97,3491.26,3333.99,3617.00,350.23,326.71,4.67,0000 0000 0000 0000 000000
2013-11-18 02:28:05,0.01,0.11,0.00,23.62,25.12,27.99,6.03,30.63,1026.46,2052.98,3491.12,3333.97,3617.00,350.13,326.54,4.68,0000 0000 0000 0000 000000
2013-11-18 02:29:06,0.03,0.11,0.00,23.61,25.12,27.91,5.94,30.67,1026.45,2052.98,3491.05,3333.93,3617.00,348.99,325.49,4.69,0000 0000 0000 0000 000000
2013-11-18 02:30:06,0.01,0.11,0.00,23.64,25.12,27.89,5.93,30.58,1026.46,2052.99,3491.03,3333.87,3616.98,348.77,325.76,4.69,0000 0000 0000 0000 000000
2013-11-18 02:31:06,0.01,0.11,0.00,23.63,25.12,27.87,6.07,30.71,1026.43,2052.97,3491.03,3333.87,3616.98,351.30,326.92,4.70,0000 0000 0000 0000 000000
2013-11-18 02:32:07,0.00,0.11,0.00,23.62,25.12,27.87,6.11,30.83,1026.44,2052.99,3491.01,3333.80,3616.96,350.00,326.41,4.70,0000 0000 0000 0000 000000
2013-11-18 02:33:07,0.02,0.11,0.00,23.63,25.12,28.00,6.03,30.71,1026.45,2052.98,3491.00,3333.60,3616.86,349.16,325.63,4.71,0000 0000 0000 0000 000000
2013-11-18 02:34:07,0.06,0.11,0.00,23.63,25.12,27.94,5.98,30.75,1026.50,2052.97,3491.00,3333.39,3616.76,349.30,325.77,4.72,0000 0000 0000 0000 000000
2013-11-18 02:35:08,0.02,0.11,0.00,23.62,25.12,27.99,5.89,30.67,1026.55,2052.97,3491.00,3333.29,3616.59,349.96,326.67,4.72,0000 0000 0000 0000 000000
2013-11-18 02:36:08,0.04,0.11,0.00,23.60,25.12,27.91,5.96,30.88,1026.54,2052.97,3491.00,3333.29,3616.46,349.44,325.54,4.73,0000 0000 0000 0000 000000
2013-11-18 02:37:08,0.02,0.11,0.00,23.58,25.12,27.87,6.14,30.71,1026.59,2052.99,3490.99,3333.23,3616.58,350.98,327.17,4.73,0000 0000 0000 0000 000000